RH
17 18 19 22 27 32 37 39 39 38 36 34 30 25 19 15 11 9 7 6 5 4 3 3 3 3 2 2 2 2 2 2 2 2 2 2 2 2 2 2 2 2 1 2 1 1 1 1 1 1 1 1
19 21 25 30 36 39 41 40 39 37 34 29 24 19 14 11 9 7 6 5 4 4 3 3 3 3 2 2 2 2 2 2 2 2 2 2 2 2 2 2 2 2 1 2 1 1 1 1 1 1 1 1
25 29 34 39 42 42 41 39 37 33 28 23 18 14 11 9 7 6 6 5 4 3 3 3 3 3 2 2 2 2 2 2 2 2 2 2 2 2 2 2 2 2 2 2 1 1 2 1 2 1 2 1
34 39 42 44 44 42 40 36 32 27 22 18 14 11 9 8 7 6 5 4 4 3 3 3 3 3 2 2 2 2 2 2 2 2 2 2 2 2 2 2 2 2 1 2 1 2 2 1 2 1 2 1
44 46 46 44 43 39 36 30 25 21 17 14 12 10 8 7 6 6 5 4 4 3 3 3 3 3 2 2 2 2 2 2 2 2 2 2 2 2 2 2 2 2 2 2 1 2 2 1 2 1 2 2
48 47 45 42 39 34 29 24 20 17 14 12 10 9 8 7 6 5 5 4 4 3 3 3 3 3 2 2 2 2 2 2 2 2 2 2 2 2 2 2 2 2 2 2 2 2 2 2 2 2 2 2
47 45 42 38 32 27 23 19 17 14 12 11 9 9 7 6 6 5 4 4 3 3 3 3 3 3 3 3 2 2 2 2 2 2 2 2 2 2 2 2 2 2 2 2 2 2 2 2 2 2 2 2
45 42 37 32 27 23 20 17 15 13 11 10 9 8 7 6 5 4 4 3 3 3 3 3 3 3 3 3 3 3 3 3 3 3 3 3 3 3 2 3 2 2 2 2 2 2 2 2 2 2 2 2
41 37 32 27 24 21 18 16 14 12 11 10 8 7 6 5 5 4 4 4 3 3 3 3 3 4 4 4 3 3 3 3 3 3 3 3 3 3 3 3 3 3 3 3 3 3 3 2 3 3 2 3
37 32 28 24 22 19 16 14 13 12 10 9 8 7 6 5 4 4 4 4 4 4 4 5 5 4 4 4 3 3 3 3 3 3 3 3 3 3 3 3 3 3 3 3 3 3 3 3 3 3 3 3
32 28 25 22 19 17 15 14 12 11 10 8 7 6 5 5 4 4 4 4 5 5 5 5 4 4 4 4 4 4 4 3 3 3 3 3 3 3 3 3 3 3 3 3 3 3 3 3 3 3 3 3
29 26 24 21 18 16 15 13 12 11 9 8 6 6 5 5 5 5 5 6 6 5 4 4 4 4 4 4 4 4 4 4 4 4 4 4 4 4 4 4 4 4 4 4 4 4 4 4 3 3 3 3
29 27 24 20 18 17 15 13 12 10 8 7 6 6 6 6 6 7 6 6 5 5 4 4 4 4 4 4 4 4 4 4 4 4 4 4 4 4 4 4 4 4 4 4 4 4 4 4 4 4 4 3
31 27 23 21 19 17 15 13 11 10 8 7 7 7 7 8 7 6 6 5 5 5 5 5 5 5 5 5 5 4 5 4 5 5 4 5 5 5 5 5 5 5 5 5 5 5 4 4 4 4 4 4
29 25 23 21 19 17 15 13 11 10 9 8 8 9 9 8 7 6 5 5 5 6 5 6 5 5 5 5 5 5 5 5 5 5 5 6 6 6 6 6 6 6 6 6 5 5 5 5 5 4 4 4
27 25 23 21 18 16 14 12 11 10 9 10 9 9 8 7 6 6 6 6 6 6 6 6 6 6 6 6 6 6 6 6 6 6 7 7 7 7 7 7 7 7 6 6 6 6 6 5 5 5 5 4
27 24 21 19 17 15 13 12 11 10 10 10 9 8 7 7 7 7 7 7 7 7 6 6 6 6 7 7 7 7 7 7 8 8 8 8 8 8 8 8 7 8 7 7 7 6 6 6 6 5 5 5
25 22 20 18 16 14 13 12 11 11 10 9 8 7 7 7 7 8 8 8 7 7 7 7 7 8 8 8 8 8 8 9 9 9 9 9 9 9 9 9 9 9 8 8 8 7 7 7 6 6 6 6
24 21 18 16 14 13 12 12 11 10 9 8 8 8 8 8 8 9 9 8 8 8 8 8 8 9 9 9 9 9 10 10 10 10 10 10 10 11 11 10 10 10 10 9 9 8 8 7 7 7 7 6
23 20 17 16 14 13 12 11 10 9 9 9 9 9 9 9 10 10 9 9 9 9 9 9 10 10 10 10 11 11 11 11 12 12 12 12 12 13 13 12 12 11 11 10 10 9 9 9 8 8 8 8
22 20 17 15 14 13 12 11 10 9 9 9 9 10 10 11 11 10 10 10 10 10 10 11 11 11 12 12 12 12 13 13 13 14 14 14 15 15 15 15 14 14 13 12 11 11 10 10 10 9 9 9
22 20 17 15 14 13 12 11 10 10 10 10 10 11 11 12 11 11 11 11 11 11 12 12 12 13 13 13 14 14 15 16 16 16 17 17 18 18 18 17 17 16 15 14 13 12 12 11 11 11 10 10
22 19 17 15 14 13 12 11 11 10 11 11 12 12 12 12 12 12 12 12 12 13 13 14 14 15 15 16 16 17 18 18 19 20 20 21 21 21 21 21 20 20 18 17 16 14 13 13 12 12 12 12
22 20 17 15 13 12 11 11 11 11 11 12 13 13 13 13 12 12 13 13 14 14 15 15 16 16 17 18 19 20 21 22 23 24 25 25 25 25 26 26 25 24 22 20 18 17 15 15 14 14 14 14
23 20 18 15 13 12 11 11 11 12 12 13 14 14 14 13 13 13 14 15 15 16 16 16 17 18 19 20 21 22 23 25 26 28 29 29 29 30 30 30 30 29 27 25 22 20 18 17 16 16 16 15
23 21 19 16 14 12 11 11 11 12 13 15 16 16 15 14 14 14 15 16 16 16 17 18 18 19 20 22 23 24 26 27 29 30 31 32 33 34 34 34 34 33 32 29 26 23 21 19 18 17 18 17
24 22 19 17 14 13 12 12 12 13 14 16 17 17 16 16 16 16 16 16 17 17 18 19 20 21 22 24 25 27 29 30 32 33 34 35 36 38 39 39 39 37 36 34 31 28 25 23 21 19 19 20
25 22 19 17 15 13 12 12 13 13 15 17 18 18 17 17 17 17 17 17 18 19 20 21 22 24 25 26 28 30 32 34 35 37 38 39 40 41 43 44 44 42 40 38 36 32 29 26 24 23 21 21
25 22 19 17 15 14 13 13 13 14 17 19 19 19 18 19 19 18 19 19 20 21 22 24 25 26 27 29 31 33 35 37 38 40 42 44 45 46 47 48 48 47 45 43 41 37 33 30 27 26 25 23
25 22 19 17 15 14 13 13 14 15 18 20 20 20 20 20 20 20 20 21 22 23 25 26 27 28 30 31 33 35 37 39 41 43 46 48 49 50 51 52 52 52 49 46 45 42 38 34 31 29 29 27
25 22 20 18 16 15 14 14 15 17 20 22 22 21 22 22 22 22 22 23 24 25 27 28 30 31 32 34 35 37 39 41 44 47 50 52 54 56 56 57 56 55 53 50 48 46 42 38 36 34 33 32
Wind_Speed
40 41 41 42 42 42 42 42 42 42 42 42 41 41 40 40 40 40 40 40 41 41 41 42 42 43 44 45 46 46 47 48 49 49 50 50 50 51 51 52 53 54 55 56 58 59 60 62 63 65 66 67
41 41 42 42 42 42 42 42 42 42 41 41 40 40 40 40 40 40 41 41 41 42 42 43 43 44 45 46 47 47 48 49 49 49 50 50 51 51 52 52 53 54 56 57 58 58 60 61 63 64 66 67
41 41 42 42 42 42 42 42 41 41 40 40 40 40 40 40 41 41 42 42 42 43 43 44 44 45 46 47 48 48 49 49 50 50 50 51 51 51 52 52 53 54 55 56 57 58 59 61 62 64 65 67
41 41 41 41 41 41 41 40 40 39 39 39 39 40 40 41 41 42 42 43 43 44 44 45 46 46 47 48 48 49 49 50 50 50 50 51 51 52 52 52 53 54 54 55 56 57 59 60 62 64 65 66
40 40 40 40 40 40 39 39 39 39 39 39 39 40 40 41 42 42 43 43 44 44 45 46 46 47 48 48 49 49 50 50 50 50 50 51 51 52 52 52 53 53 54 55 56 57 59 60 62 63 65 66
40 40 40 39 39 38 38 38 38 39 39 39 40 40 41 41 42 43 43 44 44 45 45 46 46 47 48 48 49 49 50 50 50 50 50 51 51 51 51 52 52 53 53 54 56 57 59 60 61 63 64 65
39 39 38 38 38 38 38 38 38 39 39 40 40 41 41 42 42 43 43 44 44 45 45 46 46 47 48 48 49 49 49 49 50 50 50 50 50 50 51 51 51 52 53 54 56 57 58 60 61 62 63 64
38 37 37 37 37 38 38 38 39 39 40 40 41 41 42 42 43 43 44 44 44 45 45 45 46 46 47 48 48 48 49 49 49 49 49 49 50 50 50 50 51 52 53 54 55 57 58 59 60 61 62 63
37 37 37 37 37 38 38 39 39 40 40 41 41 41 42 42 43 43 44 44 44 44 45 45 46 47 47 47 48 48 48 48 48 48 49 49 49 49 49 50 51 52 53 54 55 56 57 58 59 60 61 61
36 36 36 37 37 38 38 39 40 40 41 41 41 42 42 43 43 44 44 44 44 45 45 46 46 46 46 46 46 47 47 47 48 48 48 48 48 49 49 50 51 52 52 53 54 55 56 57 58 58 59 60
35 35 36 36 37 38 38 39 40 41 41 42 42 42 43 43 44 44 44 44 45 45 45 45 45 45 45 45 46 46 46 47 47 48 48 48 49 49 50 50 51 51 52 53 53 54 55 55 56 57 57 58
35 35 36 37 38 38 39 40 41 41 42 42 42 43 43 43 44 44 44 45 45 45 45 45 45 45 45 45 46 46 46 47 47 48 48 48 48 48 49 49 50 51 51 52 52 53 53 54 55 55 56 57
35 36 37 38 39 40 40 41 42 42 42 42 43 43 44 44 45 45 45 45 45 45 45 45 46 46 46 45 46 46 46 46 46 46 46 47 47 48 48 49 49 50 50 51 51 52 52 53 54 54 55 55
37 37 38 39 40 40 41 41 42 42 43 43 43 44 44 45 45 45 44 44 45 45 45 45 45 45 45 45 44 44 44 44 44 44 45 45 46 46 47 47 48 49 49 50 50 51 51 52 52 52 53 54
37 38 39 39 40 40 41 42 42 42 43 43 44 44 45 45 45 44 44 44 44 44 44 44 43 43 43 42 42 42 42 42 42 43 43 43 44 45 45 46 46 47 47 48 48 49 50 50 50 51 52 52
38 38 39 39 40 40 41 42 42 42 43 43 44 44 44 44 44 44 43 43 43 42 42 41 41 40 40 40 41 41 41 41 42 42 42 42 43 43 44 44 45 46 46 47 47 48 49 49 49 49 50 50
38 38 39 39 40 40 41 41 42 42 43 43 43 43 43 43 43 42 42 41 41 40 40 39 39 39 39 40 40 41 41 41 41 42 42 43 43 43 44 44 45 46 46 47 48 48 48 48 49 49 49 49
38 38 39 39 40 40 41 42 42 43 43 43 43 43 42 42 41 41 41 41 40 40 39 39 39 39 39 40 41 41 41 42 42 43 43 44 45 45 45 45 45 46 47 47 48 48 47 47 48 48 48 48
38 39 39 40 40 41 42 42 43 43 42 42 42 42 42 42 42 42 41 41 40 40 39 39 40 40 40 41 41 42 42 43 44 44 45 45 46 47 47 47 48 48 48 48 48 48 47 47 47 47 47 47
39 40 40 41 41 42 42 43 43 43 43 43 43 43 43 43 42 42 42 41 40 40 40 41 41 41 42 42 43 44 44 45 45 46 47 47 47 48 49 49 50 50 50 50 49 48 48 47 47 47 47 47
41 41 41 42 42 43 43 44 44 44 44 44 44 44 44 43 43 42 42 42 42 42 42 42 43 43 43 44 44 45 46 47 47 48 48 49 49 49 50 51 51 52 52 52 51 50 48 47 47 47 48 48
42 42 42 43 43 44 45 46 46 46 46 45 45 45 44 44 44 43 43 43 43 43 43 44 44 45 45 45 46 47 48 48 49 49 49 50 50 50 51 51 52 53 53 52 52 51 50 48 47 47 47 48
43 43 43 44 44 45 46 47 48 47 47 46 46 45 45 45 45 44 44 44 44 44 44 45 46 46 47 47 48 48 49 50 50 51 51 51 51 52 53 53 53 53 53 53 53 53 52 50 48 47 47 48
44 44 45 45 46 47 48 48 48 48 47 47 46 46 46 46 46 45 45 44 45 45 45 46 47 48 49 49 50 50 51 51 51 52 52 53 53 53 54 54 54 54 54 53 53 53 53 52 50 48 48 47
45 46 46 47 47 48 49 49 49 49 49 48 47 47 47 47 46 46 46 46 46 46 47 48 48 49 50 51 51 52 52 53 53 53 53 54 55 55 55 55 55 55 55 54 53 53 53 53 52 50 48 48
46 47 48 48 48 49 50 50 49 49 49 49 48 48 48 48 47 47 47 47 48 48 48 49 50 51 51 52 53 53 54 54 54 55 55 56 56 57 57 57 57 56 56 56 55 54 53 53 52 51 50 49
47 48 48 49 49 50 50 50 50 50 50 49 49 49 49 49 48 48 49 49 49 50 50 51 51 52 53 53 54 55 55 55 56 56 57 58 58 58 58 58 59 58 58 57 57 56 55 54 53 52 51 50
47 48 49 49 50 50 51 51 51 51 51 50 50 50 50 50 50 50 50 50 51 51 52 52 53 53 54 55 55 56 56 57 57 58 59 59 59 59 59 59 60 60 59 59 59 58 57 56 55 54 52 51
48 49 49 50 50 51 51 51 51 52 51 51 51 51 52 52 52 51 51 52 52 52 53 54 54 55 55 56 57 57 58 58 59 59 60 60 60 60 60 60 60 60 60 60 60 60 59 58 57 55 54 53
48 49 50 50 51 51 52 52 52 52 52 52 52 52 52 52 52 52 52 53 53 54 54 55 56 56 57 58 58 59 59 60 60 60 60 60 61 61 61 61 61 61 61 61 60 61 61 60 59 57 56 55
49 49 50 51 51 52 52 53 53 53 53 53 53 53 53 53 54 54 54 54 55 55 56 57 58 58 59 59 60 60 60 61 61 61 61 61 61 62 62 62 62 62 61 61 61 61 61 61 61 59 58 57
Wind_Direction
299 300 300 301 302 302 302 302 302 302 302 302 302 303 303 304 304 305 305 306 306 306 307 308 308 308 309 309 309 309 308 308 307 307 307 306 307 307 308 309 311 312 314 316 318 320 321 322 323 323 322 322
300 301 301 302 302 302 302 302 302 302 303 303 303 304 305 305 306 306 307 307 308 308 309 310 310 310 309 309 308 307 307 306 306 306 306 306 307 308 309 310 312 314 316 318 320 322 323 324 324 325 324 324
301 301 302 302 302 303 302 303 303 303 303 304 305 305 306 307 307 308 308 309 310 310 311 311 310 309 309 308 307 306 306 306 306 306 307 307 308 309 310 312 314 316 319 320 322 324 325 326 326 327 327 327
302 302 302 303 303 303 303 303 303 304 305 306 306 307 308 308 309 309 310 311 311 312 311 310 310 309 308 307 306 306 306 307 307 307 308 309 309 311 313 315 316 318 320 322 324 326 327 328 329 329 329 329
303 303 303 303 303 303 304 304 305 306 307 307 308 308 309 309 310 311 311 312 312 311 310 310 309 308 307 307 307 307 307 308 308 308 309 310 312 313 315 317 319 320 322 324 326 328 329 330 331 331 331 332
303 303 304 304 305 305 306 307 308 308 308 309 309 309 310 311 311 312 312 312 311 310 310 309 308 307 307 307 308 308 308 309 309 310 311 312 314 316 317 319 321 323 325 327 329 330 331 332 333 333 333 334
304 304 305 306 307 308 308 309 309 309 309 309 310 310 311 312 312 312 311 311 310 309 309 308 308 308 308 309 309 309 309 309 310 311 313 314 316 318 320 322 324 326 328 330 331 332 333 334 334 335 335 335
305 306 307 308 309 309 310 310 310 309 309 310 311 312 313 313 312 312 310 309 309 308 308 308 308 309 309 309 309 309 310 310 311 313 315 317 319 321 323 325 327 329 330 332 333 334 335 336 336 336 336 336
306 307 308 309 309 310 310 309 309 309 310 311 312 313 313 313 312 310 309 309 308 309 309 309 310 310 309 309 309 309 310 311 313 315 317 319 321 324 326 328 329 331 332 334 335 336 336 337 337 337 337 337
306 308 308 309 309 309 309 309 309 310 312 313 314 314 313 312 311 310 309 309 309 309 309 309 309 309 309 309 309 310 311 313 315 317 319 322 324 327 328 330 331 332 334 335 336 337 337 338 338 338 338 337
306 308 308 308 309 309 310 310 311 312 313 314 314 313 312 311 310 309 309 309 309 309 309 309 309 309 309 310 311 313 314 316 317 319 321 324 326 327 329 330 332 333 334 336 337 338 338 339 339 339 338 337
307 308 309 310 310 311 312 312 312 313 313 314 313 313 311 310 309 309 309 309 309 309 310 310 310 310 311 312 313 314 316 317 318 320 322 324 326 328 330 331 333 334 336 337 338 339 339 340 340 340 339 338
309 310 311 312 312 312 312 312 312 313 314 313 313 312 310 310 309 309 309 309 309 310 310 310 311 311 312 312 314 315 316 318 320 322 324 325 327 329 331 333 334 335 336 338 338 339 340 340 340 340 339 338
312 312 312 312 311 311 311 311 312 313 313 312 311 310 309 309 308 308 308 309 309 310 310 310 310 310 311 312 314 316 317 320 322 324 326 327 329 331 333 334 335 336 337 338 339 339 340 341 340 340 339 337
311 311 310 310 310 310 310 311 311 311 311 310 309 308 308 307 307 308 308 308 308 309 309 309 310 311 312 314 316 318 320 323 324 326 328 330 332 333 334 335 336 337 338 338 339 339 340 340 340 339 338 337
308 308 308 308 309 309 309 310 310 310 309 308 308 307 307 306 306 307 307 307 308 308 309 310 311 313 315 317 320 322 324 326 327 328 330 332 333 334 335 335 336 336 337 338 339 339 339 339 339 339 337 336
306 306 307 308 308 308 308 309 309 309 308 308 307 307 306 305 305 306 307 308 309 310 311 312 314 316 318 320 322 324 326 327 328 330 331 332 333 334 335 335 335 336 336 337 338 338 338 338 338 337 336 335
306 307 307 307 307 308 308 309 308 308 307 307 307 306 305 305 305 306 308 309 310 311 312 314 316 318 320 322 323 325 326 327 329 330 331 332 333 334 334 335 335 335 336 337 337 337 337 336 336 335 334 333
307 307 307 308 308 309 309 308 308 308 307 307 306 305 305 305 306 307 309 310 311 312 314 316 318 319 321 322 324 325 326 327 329 330 331 332 333 334 334 334 335 335 336 336 336 336 335 335 334 333 332 331
308 308 308 309 309 309 309 308 308 308 308 307 306 306 306 306 307 308 309 310 312 313 315 317 319 320 321 323 324 325 326 327 328 329 330 332 333 333 333 334 334 335 335 335 335 335 334 333 332 331 330 329
310 310 309 309 309 309 308 308 308 308 308 307 307 307 306 307 308 309 310 311 313 314 316 317 319 320 321 322 323 324 325 326 327 328 330 331 331 332 333 333 334 334 333 333 333 333 333 332 331 329 327 326
311 310 310 309 309 309 308 308 308 308 308 308 307 307 307 307 308 309 310 312 313 315 316 317 319 320 321 322 322 323 325 326 326 327 328 329 330 330 331 332 332 333 332 332 331 331 331 331 330 328 326 324
311 310 310 309 309 308 308 308 308 308 308 307 307 307 306 307 308 308 310 311 313 314 316 317 318 319 320 321 322 323 324 325 325 326 327 328 329 329 330 331 331 331 331 330 330 329 329 329 329 327 326 324
311 310 309 309 308 308 307 307 307 307 307 307 307 306 306 306 307 308 309 311 312 314 315 316 317 318 319 320 321 322 322 323 324 325 326 326 327 328 328 329 330 330 330 329 328 328 327 327 327 326 325 323
311 310 309 308 307 307 306 306 306 306 306 306 306 306 305 305 306 307 308 310 311 313 314 315 316 317 318 318 319 320 321 321 322 323 324 325 326 326 326 327 328 329 329 328 328 327 326 325 325 325 324 322
310 309 308 307 306 305 305 305 305 305 305 305 305 305 304 305 306 307 308 309 311 312 313 313 314 315 316 317 317 318 319 320 321 322 323 323 324 324 325 326 327 327 327 327 327 326 325 324 323 323 323 322
309 308 307 305 304 304 303 303 303 303 304 304 304 304 304 304 305 306 307 308 310 311 312 312 313 314 314 315 316 317 318 318 320 321 321 322 322 322 323 324 325 326 326 326 326 326 325 324 323 323 322 321
308 306 305 304 303 302 302 302 302 302 302 302 303 302 303 303 305 306 307 308 309 310 311 311 312 312 313 314 314 315 316 317 318 319 320 320 320 321 322 323 324 324 325 325 325 325 325 324 323 323 322 321
306 305 303 302 301 301 300 301 301 301 301 302 302 302 303 304 305 306 307 307 308 309 309 310 310 311 312 312 313 314 315 316 317 318 318 318 319 319 320 321 322 323 323 324 324 324 324 323 323 323 322 322
304 303 302 301 300 300 300 300 301 301 301 302 302 302 302 303 304 305 306 306 307 307 308 309 309 310 311 312 313 314 315 316 316 316 316 317 318 318 319 320 321 321 322 323 323 323 323 323 323 323 322 322
303 302 301 300 299 299 299 300 300 300 301 301 301 301 302 302 304 305 305 306 306 307 307 308 309 309 310 311 312 313 314 314 315 315 316 316 317 317 318 319 320 320 321 322 322 322 322 321 322 322 322 322